Regional Weather Roundup
Issued by NWS Upton, NY

Current Version | Previous Version | Graphics & Text | Print | Product List | Glossary Off
Versions: 1 2 3 4 5 6 7 8 9 10 11 12 13 14 15 16 17 18 19 20 21 22 23 24 25 26 27 28 29 30 31 32 33 34 35 36 37 38 39 40 41 42 43 44 45 46 47 48 49 50

543
ASUS41 KOKX 050302
RWROKX

REGIONAL WEATHER ROUNDUP
NATIONAL WEATHER SERVICE NEW YORK NY
1100 PM EDT WED MAY 04 2016

NOTE: "FAIR" INDICATES FEW OR NO CLOUDS BELOW 12,000 FEET WITH NO
SIGNIFICANT WEATHER AND/OR OBSTRUCTIONS TO VISIBILITY.

NYZ071-072-176-178-NJZ106-104-050400-
NEW YORK CITY METRO AREA


CITY           SKY/WX    TMP DP  RH WIND       PRES   REMARKS
CENTRAL PARK   CLOUDY    49  41  74 NE8G17    29.77F
LAGUARDIA APRT CLOUDY    50  45  83 NE14      29.74F
KENNEDY INTL   CLOUDY    49  42  77 NE15      29.75F
NEWARK/LIBERTY CLOUDY    50  43  77 NE9G21    29.74F
BRNX BOT. GARD   N/A     48  41  76 W2        29.74F
TETERBORO      CLOUDY    50  42  74 NE5       29.74F
$$

NYZ177-179-078>081-050400-
LONG ISLAND NEW YORK

CITY           SKY/WX    TMP DP  RH WIND       PRES   REMARKS
FARMINGDALE    CLOUDY    47  42  83 NE13      29.74F
ISLIP          CLOUDY    46  42  86 N13       29.73F
SHIRLEY        CLOUDY    46  43  89 N10       29.74F
RIVERHEAD        N/A     46  43  87 E5        29.74F
WESTHAMPTON    NOT AVBL
EAST HAMPTON   CLOUDY    44  41  90 NE10G20   29.71F
MONTAUK POINT    N/A     46  43  89 NE13G22   29.72F
$$

NYZ052-065-067-050400-
HUDSON VALLEY

CITY           SKY/WX    TMP DP  RH WIND       PRES   REMARKS
WHITE PLAINS   CLOUDY    47  42  83 NE6       29.74F
NEWBURGH       MOCLDY    46  45  93 NE9       29.78S
MONTGOMERY     CLOUDY    47  44  90 NE7       29.76F
POUGHKEEPSIE   CLOUDY    49  43  80 N5        29.77F
ALBANY         CLOUDY    48  42  80 N3        29.80F
$$

NJZ001-105-106-008-010-013-015-019>022-104-050400-
NEW JERSEY

CITY           SKY/WX    TMP DP  RH WIND       PRES   REMARKS
NEWARK/LIBERTY CLOUDY    50  43  77 NE9G21    29.74F
TETERBORO      CLOUDY    50  42  74 NE5       29.74F
CALDWELL       CLOUDY    49  30  48 NE6       29.75F
MORRISTOWN     CLOUDY    48  45  87 NE7       29.75F
SOMERVILLE     CLOUDY    51  45  79 VRB7      29.73F
SUSSEX         CLOUDY    48  43  82 NE9       29.76F
ANDOVER          N/A     48  44  86 NE7       29.75F
TRENTON        CLOUDY    49  47  93 NE6       29.72F FOG
MILLVILLE      CLOUDY    50  44  80 NE12      29.72S
ATLANTIC CITY  CLOUDY    49  45  86 NE9       29.71F
WRIGHTSTOWN    NOT AVBL
TOMS RIVER     CLOUDY    48  43  81 NE12      29.73F
BELMAR         CLOUDY    48  44  86 NE10      29.74S
$$

PAZ047>061-062-071-050400-
EASTERN PENNSYLVANIA

CITY           SKY/WX    TMP DP  RH WIND       PRES   REMARKS
PHILADELPHIA   CLOUDY    51  46  83 NE8       29.73F
ALLENTOWN      CLOUDY    50  46  86 NE7       29.73F FOG
SCRANTON       CLOUDY    49  44  83 CALM      29.73F
$$

CTZ002-004>006-009-010-012-RIZ004-006-007-MAZ004-011-015-050400-
SOUTHERN NEW ENGLAND
 IN CT

CITY           SKY/WX    TMP DP  RH WIND       PRES   REMARKS
BRADLEY INTL   DRIZZLE   45  41  86 N12       29.79S
HARTFORD       CLOUDY    47  42  83 N12       29.78F
DANBURY        CLOUDY    47  41  80 NE7       29.77F
WTRBRY/OXFORD    N/A     45  37  76 NE13G20   29.76F
BRIDGEPORT     CLOUDY    48  43  82 NE14      29.75F
MERIDEN        CLOUDY    47  42  83 N6        29.77F
NEW HAVEN      CLOUDY    47  43  86 N8        29.75F
CHESTER        CLOUDY    45  43  93 N8G16     29.74F
GROTON         CLOUDY    45  45 100 N14G20    29.72F
WILLIMANTIC    CLOUDY    45  40  82 NE14      29.74F

 IN RI

CITY           SKY/WX    TMP DP  RH WIND       PRES   REMARKS
PROVIDENCE     CLOUDY    45  42  89 N12       29.76F
BLOCK ISLAND   CLOUDY    45  43  93 NE18G30   29.71F
WESTERLY       CLOUDY    45  41  86 N13G23    29.72F

 IN MA

CITY           SKY/WX    TMP DP  RH WIND       PRES   REMARKS
BOSTON         LGT RAIN  44  42  93 N13       29.80F
WORCESTER      LGT RAIN  39  38  96 NE15G23   29.77F WCI  31
WESTFIELD      LGT RAIN  45  42  89 NE8       29.80S
PROVINCETOWN   LGT RAIN  44  43  96 NE22      29.76F FOG
NANTUCKET      CLOUDY    46  43  89 NE23G32   29.69F
$$

ANZ330-335-338-340-345-350-353-355-050400-
COASTAL MARINE OBSERVATIONS


STATION/POSITION TIME  SKY/WX   TEMP    WIND        PRES    VSBY  WAVE
                                AIR SEA DIR/SP/G                  HT/PER
                 (UTC)          (F)     (DEG/KT/KT) (MB)    (MI)  (FT/S)
NY HARB ENTRANCE 0150            49 50   40/ 19/ 23 1006.2          6/ 7
20S FIRE ISLAND  0150            48 48   30/ 19/ 25 1005.7          7/ 7
GREAT SOUTH BAY  0200            47 54   30/ 14/ 19   N/A
23 SSW MONTAUK P 0250            46 46   40/ 23/ 27 1004.5          8/ 7
15 E BARNEGAT LI 0152               50                N/A           8/ 7
HUDSON CANYON    0150            48 48              1003.6          9/ 7
KINGS POINT      0200            49 53              1007.4
EXECUTION ROCKS  NOT AVBL
CENTRAL LI SOUND 0245            47      20/ 12/ 16   N/A           2/ 3
EASTERN LI SOUND 0200            45 48   30/ 16/ 21   N/A
ROBBINS REEF     0200            50                 1006.6
$$


>>>>>>>>>>>>>>>>>>>>>>>>>>>> KEY <<<<<<<<<<<<<<<<<<<<<<<<<<<
>                                                          <
>     SKY/WX - SKY CONDITION/PRESENT WEATHER               <
>     TMP    - TEMPERATURE IN FAHRENHEIT                   <
>     DP     - DEWPOINT IN FAHRENHEIT                      <
>     RH     - RELATIVE HUMIDITY IN PERCENT                <
>     WIND   - DIRECTION AND SPEED IN MPH                  <
>     PRES   - MEAN SEA LEVEL PRESSURE IN INCHES OF HG     <
>     WCI    - WIND CHILL INDEX                            <
>     VSB    - VISIBILITY IN MILES                         <
>     HX     - HEAT INDEX                                  <
>     TC     - TEMPERATURE IN CELSIUS                      <
>     VRB    - VARIABLE WIND DIRECTION                     <
>                                                          <
>>>>>>>>>>>>>>>>>>>>>>>>>>>> KEY <<<<<<<<<<<<<<<<<<<<<<<<<<<






USA.gov is the U.S. government's official web portal to all federal, state and local government web resources and services.